C/2014 OE4 ( PanSTARRS )

Japanese version
Home page
Updated on March 25, 2017

---------------------------------------------------------------------

* Profile

Discovery Date July 26, 2014
Magnitude 20.7 mag
Discoverer Pan-STARRS 1 telescope (Haleakala)

* Pictures

* Orbital Elements

Epoch 2016 Nov. 28.0 TT = JDT 2457720.5
T 2016 Dec. 10.74515 TT                                 MPCW
q   6.2443336            (2000.0)            P               Q
z  +0.0000867      Peri.   65.74289     -0.08368650     +0.50406343
 +/-0.0000002      Node   240.40004     -0.74841966     +0.53774885
e   0.9994588      Incl.   81.34887     +0.65792445     +0.67583004
From 788 observations 2014 May 8-2017 Mar. 7, mean residual 0".4.

* Magnitudes Graph

        m1 = -5.8 + 5 log d + 23.0 log r

---------------------------------------------------------------------

The orbital elements are published on M.P.E.C. 2017-E59.
The magnitudes graphs are made with Comet for Windows.

---------------------------------------------------------------------

Copyright(C) Seiichi Yoshida (comet@aerith.net). All rights reserved.